Location: Bothwell
(42.3833°S, 147.0000°E)
Time: 01:35:12
(UTC+10:00)

AO-91 - Visible Passes

Search period start: 01 October 2022 23:00
Search period end: 12 October 2022 00:00
Orbit: 451 x 794 km, 97.7° (Epoch: 01 October)

Date Brightness Start Highest point End Pass type
(mag) Time Alt. Az. Time Alt. Az. Time Alt. Az.
05 Oct ? 22:43:20 10° S 22:43:20 10° S 22:43:25 10° S visible
06 Oct ? 23:01:25 11° S 23:01:25 11° S 23:01:34 10° S visible
07 Oct ? 23:19:28 10° SSW 23:19:28 10° SSW 23:19:33 10° SSW visible
08 Oct ? 22:00:21 11° SSE 22:00:21 11° SSE 22:00:29 10° SSE visible
09 Oct ? 22:18:24 14° SSE 22:18:24 14° SSE 22:19:06 10° S visible
10 Oct ? 22:36:26 16° S 22:36:26 16° S 22:37:26 10° S visible
11 Oct ? 22:54:29 18° S 22:54:29 18° S 22:55:35 10° S visible
